"Pseudo-MPEC" for W023205

Created 2026 Aug 14 3:35:29 UT using Find_Orb

Click here for an explanation of pseudo-MPECs

 
 Astrometry: 
     W023205* C2026 08 12.90050900 43 14.179+18 12 17.69   ~8E3K 21.22rVNEOCPO18
     W023205  C2026 08 12.90275500 43 14.414+18 12 20.71   ~8E3K 21.99rVNEOCPO18
     W023205  C2026 08 12.90503500 43 14.664+18 12 23.63   ~8E3K 21.51rVNEOCPO18

Station data:
(O18) WFST, Lenghu  (N38.607601 E93.895220)  China.  Observers K. Yan, Z. Q.
   Li, J. Z. Zhu, N. Jiang, Z. Y. Liu. Measurers B. Li, H. B. Zhao, Z. J. Xu,
   G. T. Zhaori. 2.5-m f/2.48 reflector + CCD.

Orbital elements:  W023205
   Perihelion 2026 Oct 7.283519 +/- 35.3 TT =  6:48:16.0 (JD 2461320.783519)
Epoch 2026 Aug 13.0 TT = JDT 2461265.5   Earth MOID: 0.0221   Ve: 0.0113
M 311.975878687 +/- 42              Me: 0.0482                   AutoNEOCP
n   0.868687848 +/- 0.645           Peri.  329.005602 +/- 80
a   1.087827962 +/- 0.539           Node   161.876550 +/- 55
e   0.90080101 +/- 0.252            Incl.   23.832550 +/- 40
P   1.135/414.410d         H 21.76  G  0.15   U 12.5  SR
q 0.107911429 +/- 0.496    Q 2.067744495 +/- 27           (J2000 ecliptic)
From 3 observations 2026 Aug. 12 (6.5 min); mean residual 0".04
Residuals in arcseconds: 
260812 O18  .03+  .02-    260812 O18  .05-  .05+    260812 O18  .03+  .02-    

Ephemerides (geocentric):
Date (UTC) HH   RA             Dec           delta  r     elong  mag " sig PA
---- --------  ------------   ------------  ------ ------ -----  --- --------
2026 08 14 04  00 45 48.565   +18 41 46.20  .33657 1.2260 122.2 21.5  33d  84
2026 08 14 05  00 45 53.934   +18 42 47.45  .33575 1.2255 122.2 21.5  33d  84
2026 08 14 06  00 45 59.324   +18 43 48.93  .33494 1.2249 122.2 21.5  33d  84
2026 08 14 07  00 46 04.734   +18 44 50.64  .33412 1.2244 122.3 21.5  33d  84
2026 08 14 08  00 46 10.165   +18 45 52.58  .33330 1.2239 122.3 21.5  34d  84
2026 08 14 09  00 46 15.617   +18 46 54.76  .33248 1.2233 122.3 21.5  34d  84
2026 08 14 10  00 46 21.090   +18 47 57.18  .33167 1.2228 122.3 21.5  34d  84
2026 08 14 11  00 46 26.584   +18 48 59.83  .33085 1.2222 122.3 21.5  34d  84
2026 08 14 12  00 46 32.100   +18 50 02.72  .33003 1.2217 122.3 21.5  35d  84
2026 08 14 13  00 46 37.637   +18 51 05.85  .32922 1.2211 122.3 21.5  36d  84
2026 08 14 14  00 46 43.196   +18 52 09.22  .32840 1.2206 122.3 21.5  36d  83
2026 08 14 15  00 46 48.778   +18 53 12.84  .32758 1.2200 122.3 21.5  37d  83
2026 08 14 16  00 46 54.381   +18 54 16.71  .32677 1.2195 122.4 21.5  37d  83
2026 08 14 17  00 47 00.007   +18 55 20.83  .32595 1.2189 122.4 21.5  37d  83
2026 08 14 18  00 47 05.655   +18 56 25.19  .32513 1.2184 122.4 21.5  37d  83
2026 08 14 19  00 47 11.326   +18 57 29.81  .32432 1.2178 122.4 21.5  37d  83
2026 08 14 20  00 47 17.020   +18 58 34.68  .32350 1.2173 122.4 21.5  37d  83
2026 08 14 21  00 47 22.737   +18 59 39.81  .32268 1.2167 122.4 21.4  37d  83
2026 08 14 22  00 47 28.478   +19 00 45.20  .32187 1.2162 122.4 21.4  37d  83
2026 08 14 23  00 47 34.242   +19 01 50.84  .32105 1.2156 122.4 21.4  37d  83
2026 08 15 00  00 47 40.030   +19 02 56.75  .32024 1.2151 122.4 21.4  37d  83
2026 08 15 01  00 47 45.841   +19 04 02.93  .31942 1.2145 122.4 21.4  38d  83
2026 08 15 02  00 47 51.677   +19 05 09.37  .31861 1.2140 122.5 21.4  38d  84
2026 08 15 03  00 47 57.537   +19 06 16.07  .31779 1.2134 122.5 21.4  39d  83
2026 08 15 04  00 48 03.422   +19 07 23.05  .31697 1.2129 122.5 21.4  40d  83
2026 08 15 05  00 48 09.331   +19 08 30.30  .31616 1.2123 122.5 21.4  40d  83
2026 08 15 06  00 48 15.265   +19 09 37.82  .31534 1.2118 122.5 21.4  41d  83
2026 08 15 07  00 48 21.225   +19 10 45.63  .31453 1.2112 122.5 21.4  42d  83
2026 08 15 08  00 48 27.210   +19 11 53.71  .31371 1.2107 122.5 21.4  42d  82
2026 08 15 09  00 48 33.220   +19 13 02.07  .31290 1.2101 122.5 21.4  43d  82
2026 08 15 10  00 48 39.257   +19 14 10.71  .31208 1.2096 122.5 21.4  43d  82
2026 08 15 11  00 48 45.319   +19 15 19.64  .31127 1.2090 122.5 21.4  43d  82
2026 08 15 12  00 48 51.408   +19 16 28.85  .31046 1.2085 122.5 21.4  43d  82
2026 08 15 13  00 48 57.523   +19 17 38.36  .30964 1.2079 122.6 21.3  43d  82
2026 08 15 14  00 49 03.665   +19 18 48.16  .30883 1.2074 122.6 21.3  43d  82
2026 08 15 15  00 49 09.833   +19 19 58.25  .30801 1.2068 122.6 21.3  43d  82
2026 08 15 16  00 49 16.029   +19 21 08.64  .30720 1.2063 122.6 21.3  44d  82
2026 08 15 17  00 49 22.253   +19 22 19.32  .30638 1.2057 122.6 21.3  44d  82
2026 08 15 18  00 49 28.504   +19 23 30.31  .30557 1.2052 122.6 21.3  44d  82
2026 08 15 19  00 49 34.783   +19 24 41.61  .30476 1.2046 122.6 21.3  44d  82
2026 08 15 20  00 49 41.090   +19 25 53.20  .30394 1.2040 122.6 21.3  45d  82
2026 08 15 21  00 49 47.426   +19 27 05.11  .30313 1.2035 122.6 21.3  45d  82
2026 08 15 22  00 49 53.790   +19 28 17.33  .30232 1.2029 122.6 21.3  46d  82
2026 08 15 23  00 50 00.183   +19 29 29.86  .30150 1.2024 122.6 21.3  46d  82
2026 08 16 00  00 50 06.606   +19 30 42.71  .30069 1.2018 122.6 21.3  47d  82
2026 08 16 01  00 50 13.057   +19 31 55.87  .29988 1.2013 122.6 21.3  47d  82
2026 08 16 02  00 50 19.539   +19 33 09.36  .29907 1.2007 122.6 21.3  47d  82
2026 08 16 03  00 50 26.050   +19 34 23.17  .29825 1.2002 122.6 21.3  48d  81